ANSAT-1

operational
NORAD ID: 64884 Int'l Des: NNA 2025-155 Owner: STTS Country: RU
LEOCIRCULARRETROGRADESSO

Über ANSAT-1

Beschreibung wird geladen...

Live-Position

3D-Globus wird geladen...

Nächste Überflüge

Höhenverlauf

Altitude vs Time

uPlot chart will show altitude changes over time

Zweizeiliger Elementsatz

1 64884U 25155J 25340.96389993 .00015037 00000-0 60144-3 0 9992
2 64884 97.4340 304.7553 0009797 122.8214 237.3969 15.25144080 51418
Epoch: 6. Dez. 2025 • Age: 18 hours

Aktueller Status

Höhe 488.9 km
Geschwindigkeit 7.63 km/s
Subsatellitenpunkt 34.63°N, 157.6°E
Startdatum 25. Juli 2025
Alter 0.3 years
Typ other

Technische Details

Klassifizierung Payload
Masse 3.00 kg
Trockenmasse 3.00 kg
Gesamtmasse 3.00 kg
Länge 0.30 m
Durchmesser 0.10 m
Spannweite 0.30 m
Form Box
Hersteller STTS
Bus-Typ Cubesat 3U
Phasenstatus In Orbit
Besitzer/Staat STTS/RU

Große Konstellationen

Loading constellations...